TimeEST,TemperatureF,Dew PointF,Humidity,Sea Level PressureIn,VisibilityMPH,Wind Direction,Wind SpeedMPH,Gust SpeedMPH,PrecipitationIn,Events,Conditions,WindDirDegrees,DateUTC
12:15 AM,37.4,30.2,75,30.01,10.0,East,3.5,-,N/A,,Overcast,80,2013-03-06 05:15:00
12:35 AM,37.4,30.2,75,30.01,10.0,NE,3.5,-,N/A,,Mostly Cloudy,50,2013-03-06 05:35:00
12:55 AM,37.4,30.2,75,30.01,10.0,ENE,4.6,-,N/A,,Scattered Clouds,60,2013-03-06 05:55:00
1:15 AM,35.6,30.2,81,30.01,10.0,ENE,3.5,-,N/A,,Scattered Clouds,70,2013-03-06 06:15:00
1:35 AM,35.6,32.0,87,30.00,10.0,East,5.8,-,N/A,,Overcast,80,2013-03-06 06:35:00
1:55 AM,35.6,32.0,87,30.00,10.0,ENE,4.6,-,N/A,,Overcast,60,2013-03-06 06:55:00
2:15 AM,35.6,32.0,87,29.99,10.0,ENE,5.8,-,N/A,,Overcast,70,2013-03-06 07:15:00
2:35 AM,35.6,32.0,87,29.99,10.0,ENE,5.8,-,N/A,,Overcast,70,2013-03-06 07:35:00
2:55 AM,35.6,32.0,87,29.98,10.0,ENE,9.2,-,N/A,,Overcast,70,2013-03-06 07:55:00
3:15 AM,35.6,32.0,87,29.98,10.0,ENE,6.9,-,N/A,,Overcast,70,2013-03-06 08:15:00
3:35 AM,35.6,32.0,87,29.98,10.0,ENE,6.9,-,N/A,,Overcast,70,2013-03-06 08:35:00
3:55 AM,35.6,32.0,87,29.98,10.0,ENE,10.4,-,N/A,,Overcast,70,2013-03-06 08:55:00
4:15 AM,35.6,32.0,87,29.97,10.0,ENE,11.5,18.4,N/A,,Overcast,70,2013-03-06 09:15:00
4:35 AM,35.6,32.0,87,29.97,10.0,ENE,9.2,-,N/A,,Mostly Cloudy,70,2013-03-06 09:35:00
4:55 AM,35.6,33.8,93,29.97,10.0,East,10.4,16.1,N/A,,Overcast,80,2013-03-06 09:55:00
5:15 AM,35.6,33.8,93,29.97,10.0,East,10.4,19.6,N/A,,Overcast,80,2013-03-06 10:15:00
6:15 AM,37.4,33.8,87,29.96,10.0,East,9.2,17.3,N/A,,Overcast,80,2013-03-06 11:15:00
6:35 AM,37.4,33.8,87,29.96,10.0,East,11.5,19.6,N/A,,Overcast,80,2013-03-06 11:35:00
6:55 AM,37.4,33.8,87,29.95,9.0,East,11.5,21.9,N/A,,Overcast,80,2013-03-06 11:55:00
7:15 AM,37.4,35.6,93,29.96,8.0,East,11.5,17.3,N/A,,Overcast,80,2013-03-06 12:15:00
7:35 AM,37.4,33.8,87,29.97,10.0,East,10.4,21.9,N/A,,Overcast,100,2013-03-06 12:35:00
7:55 AM,37.4,33.8,87,29.96,10.0,East,13.8,21.9,N/A,,Overcast,80,2013-03-06 12:55:00
8:15 AM,39.2,33.8,81,29.96,10.0,East,16.1,25.3,N/A,,Overcast,80,2013-03-06 13:15:00
8:35 AM,39.2,33.8,81,29.96,10.0,East,13.8,23.0,N/A,,Overcast,80,2013-03-06 13:35:00
8:55 AM,39.2,33.8,81,29.96,8.0,East,16.1,23.0,N/A,,Overcast,90,2013-03-06 13:55:00
9:15 AM,39.2,33.8,81,29.96,7.0,East,15.0,18.4,N/A,Rain,Light Rain,80,2013-03-06 14:15:00
9:35 AM,39.2,35.6,87,29.95,5.0,East,17.3,25.3,0.01,Rain,Light Rain,80,2013-03-06 14:35:00
9:55 AM,39.2,35.6,87,29.95,5.0,East,12.7,20.7,0.02,Rain,Rain,80,2013-03-06 14:55:00
10:15 AM,39.2,35.6,87,29.95,9.0,ENE,17.3,25.3,0.01,,Overcast,70,2013-03-06 15:15:00
10:35 AM,39.2,33.8,81,29.95,7.0,East,12.7,25.3,0.01,,Mostly Cloudy,90,2013-03-06 15:35:00
10:55 AM,39.2,33.8,81,29.96,6.0,ENE,20.7,27.6,0.01,,Haze,70,2013-03-06 15:55:00
11:15 AM,39.2,32.0,75,29.95,10.0,East,16.1,29.9,N/A,,Mostly Cloudy,90,2013-03-06 16:15:00
11:35 AM,39.2,33.8,81,29.95,4.0,East,15.0,29.9,N/A,Rain,Light Rain,90,2013-03-06 16:35:00
11:55 AM,41.0,32.0,70,29.93,10.0,East,11.5,25.3,N/A,Rain,Light Rain,80,2013-03-06 16:55:00
12:15 PM,39.2,32.0,75,29.92,8.0,ENE,11.5,24.2,N/A,,Overcast,70,2013-03-06 17:15:00
12:35 PM,39.2,32.0,75,29.90,9.0,ENE,21.9,28.8,N/A,,Mostly Cloudy,70,2013-03-06 17:35:00
12:55 PM,41.0,32.0,70,29.91,10.0,ENE,15.0,27.6,N/A,,Overcast,60,2013-03-06 17:55:00
1:15 PM,39.2,32.0,75,29.92,5.0,ENE,20.7,31.1,N/A,,Haze,60,2013-03-06 18:15:00
1:35 PM,41.0,32.0,70,29.91,10.0,East,13.8,26.5,N/A,,Overcast,80,2013-03-06 18:35:00
1:55 PM,39.2,32.0,75,29.92,6.0,ENE,11.5,27.6,N/A,Rain,Light Rain,70,2013-03-06 18:55:00
2:15 PM,39.2,32.0,75,29.91,7.0,ENE,12.7,25.3,N/A,,Overcast,70,2013-03-06 19:15:00
2:35 PM,39.2,33.8,81,29.91,5.0,East,12.7,21.9,N/A,,Haze,80,2013-03-06 19:35:00
2:55 PM,39.2,32.0,75,29.90,10.0,ENE,18.4,35.7,N/A,,Mostly Cloudy,70,2013-03-06 19:55:00
3:15 PM,39.2,32.0,75,29.91,10.0,ENE,21.9,34.5,N/A,,Mostly Cloudy,70,2013-03-06 20:15:00
3:35 PM,39.2,32.0,75,29.91,10.0,ENE,19.6,28.8,N/A,,Overcast,60,2013-03-06 20:35:00
3:55 PM,37.4,32.0,81,29.92,9.0,ENE,17.3,26.5,N/A,,Mostly Cloudy,70,2013-03-06 20:55:00
4:15 PM,37.4,33.8,87,29.92,7.0,ENE,13.8,24.2,0.01,,Mostly Cloudy,70,2013-03-06 21:15:00
4:35 PM,37.4,33.8,87,29.91,5.0,ENE,17.3,29.9,0.01,Rain,Light Rain,60,2013-03-06 21:35:00
4:55 PM,37.4,32.0,81,29.93,8.0,ENE,12.7,33.4,0.01,,Overcast,60,2013-03-06 21:55:00
5:15 PM,37.4,32.0,81,29.93,10.0,ENE,17.3,29.9,N/A,,Overcast,60,2013-03-06 22:15:00
5:35 PM,37.4,32.0,81,29.93,10.0,ENE,19.6,33.4,N/A,,Overcast,60,2013-03-06 22:35:00
5:55 PM,37.4,32.0,81,29.92,10.0,NE,20.7,34.5,N/A,,Overcast,40,2013-03-06 22:55:00
6:15 PM,37.4,32.0,81,29.92,10.0,NE,18.4,27.6,N/A,,Mostly Cloudy,50,2013-03-06 23:15:00
6:35 PM,37.4,32.0,81,29.93,10.0,ENE,17.3,32.2,N/A,,Overcast,60,2013-03-06 23:35:00
6:55 PM,37.4,32.0,81,29.92,10.0,ENE,20.7,33.4,N/A,,Overcast,60,2013-03-06 23:55:00
7:15 PM,35.6,32.0,87,29.93,10.0,NE,17.3,31.1,N/A,,Overcast,50,2013-03-07 00:15:00
7:35 PM,35.6,32.0,87,29.93,10.0,NE,17.3,32.2,N/A,,Overcast,50,2013-03-07 00:35:00
7:55 PM,35.6,32.0,87,29.92,10.0,NE,18.4,32.2,N/A,,Overcast,40,2013-03-07 00:55:00
8:15 PM,35.6,32.0,87,29.92,10.0,NE,15.0,26.5,N/A,,Overcast,40,2013-03-07 01:15:00
8:35 PM,35.6,32.0,87,29.92,10.0,NE,16.1,26.5,N/A,,Overcast,40,2013-03-07 01:35:00
8:55 PM,35.6,32.0,87,29.92,10.0,NE,17.3,29.9,N/A,,Overcast,40,2013-03-07 01:55:00
9:15 PM,35.6,32.0,87,29.92,10.0,NE,16.1,25.3,N/A,,Overcast,50,2013-03-07 02:15:00
9:35 PM,35.6,30.2,81,29.92,10.0,NE,16.1,28.8,N/A,,Overcast,40,2013-03-07 02:35:00
9:55 PM,37.4,30.2,75,29.93,10.0,NE,18.4,28.8,N/A,,Overcast,40,2013-03-07 02:55:00
10:15 PM,35.6,30.2,81,29.93,10.0,ENE,16.1,31.1,N/A,Rain,Light Rain,60,2013-03-07 03:15:00
10:35 PM,35.6,32.0,87,29.93,5.0,NE,13.8,21.9,0.01,,Overcast,50,2013-03-07 03:35:00
10:55 PM,35.6,32.0,87,29.93,5.0,NE,13.8,26.5,0.03,,Overcast,50,2013-03-07 03:55:00
11:15 PM,35.6,32.0,87,29.92,4.0,NE,16.1,26.5,0.01,,Overcast,50,2013-03-07 04:15:00
11:35 PM,35.6,32.0,87,29.91,4.0,NE,13.8,24.2,0.05,,Mostly Cloudy,50,2013-03-07 04:35:00
11:55 PM,35.6,32.0,87,29.92,5.0,ENE,13.8,29.9,0.06,,Mostly Cloudy,60,2013-03-07 04:55:00